Change the Weather History Date:

Friday, February 10, 2012

  Actual Average Record
Temperature  
Mean Temperature 46 °F -  
Max Temperature 48 °F - - ()
Min Temperature 45 °F - - ()
Degree Days  
Heating Degree Days 18    
Moisture  
Dew Point 47 °F    
Average Humidity 100    
Maximum Humidity 100    
Minimum Humidity 93    
Precipitation  
Precipitation 0.03 in - - ()
Sea Level Pressure  
Sea Level Pressure 30.42 in    
Wind  
Wind Speed 7 mph ()    
Max Wind Speed 12 mph    
Max Gust Speed -    
Visibility 3.9 miles    
Events Fog , Rain    
T = Trace of Precipitation, MM = Missing Value Source: Averaged Metar Reports

Daily Weather History Graph

Daily Weather History Graph

Search for Another Location

Airport or City:

Trip Planner

Search our weather history database for the weather conditions in past years. The results will help you decide how hot, cold, wet, or windy it might be!

Date:

Astronomy

Feb. 10, 2012 Rise Set
Actual Time 8:06 AM GMT 5:33 PM GMT
Civil Twilight 7:29 AM GMT 6:10 PM GMT
Nautical Twilight 6:47 AM GMT 6:52 PM GMT
Astronomical Twilight 6:06 AM GMT 7:33 PM GMT
Moon 9:37 PM GMT (2/10) 8:32 AM GMT (2/10)
Length of Visible Light 10h 41m
Length of Day
9h 26m
Waning Gibbous, 91% of the Moon is Illuminated
Feb 10
Waning Gibbous
Feb 14
Last Quarter
Feb 21
New
Mar 1
First Quarter
Mar 8
Full

Hourly Weather History & Observations

Time (GMT) Temp. Windchill Dew Point Humidity Pressure Visibility Wind Dir Wind Speed Gust Speed Precip Events Conditions
12:00 AM 47 °F - 47 °F 100% 30.51 in - SW 8.9 mph - -  
6:00 AM 46 °F - 46 °F 100% 30.47 in 0 mi South 6.7 mph - - Fog Heavy Fog
8:00 AM 46.4 °F 43.5 °F 46.4 °F 100% 30.45 in 0.1 mi SSW 5.8 mph - N/A Fog Fog
8:30 AM 46.4 °F 43.5 °F 46.4 °F 100% 30.45 in 0.1 mi South 5.8 mph - N/A Fog Fog
9:00 AM 46.4 °F 44.3 °F 46.4 °F 100% 30.45 in 0.1 mi South 4.6 mph - N/A Fog , Rain Light Rain
9:30 AM 46.4 °F 44.3 °F 46.4 °F 100% 30.45 in 0.1 mi SSW 4.6 mph - N/A Fog , Rain Light Rain
10:00 AM 46.4 °F 43.5 °F 46.4 °F 100% 30.45 in 0.1 mi SSW 5.8 mph - N/A Fog Fog
10:30 AM 48.2 °F - 48.2 °F 100% 30.45 in 0.5 mi SSW 6.9 mph - N/A Fog Fog
11:00 AM 48.2 °F - 48.2 °F 100% 30.45 in 0.6 mi SSW 6.9 mph - N/A Fog Fog
11:30 AM 48.2 °F - 48.2 °F 100% 30.45 in 5.6 mi SSW 8.1 mph - N/A   Mostly Cloudy
12:00 PM 48 °F - 48 °F 100% 30.47 in 11 mi SW 8.9 mph - - Fog Light Fog
12:00 PM 48.2 °F - 48.2 °F 100% 30.45 in 6.2 mi SW 8.1 mph - N/A   Mostly Cloudy
12:30 PM 48.2 °F - 48.2 °F 100% 30.45 in 6.2 mi SSW 6.9 mph - N/A   Mostly Cloudy
1:00 PM 48.2 °F - 48.2 °F 100% 30.42 in 6.2 mi SSW 8.1 mph - N/A   Mostly Cloudy
1:30 PM 48.2 °F - 48.2 °F 100% 30.42 in 6.2 mi SSW 9.2 mph - N/A   Mostly Cloudy
2:00 PM 48.2 °F - 46.4 °F 93% 30.42 in 5.6 mi SSW 9.2 mph - N/A   Light Drizzle
2:30 PM 48.2 °F - 48.2 °F 100% 30.42 in 6.2 mi SSW 9.2 mph - N/A   Mostly Cloudy
3:00 PM 48.2 °F - 48.2 °F 100% 30.42 in 6.2 mi South 8.1 mph - N/A   Mostly Cloudy
3:30 PM 48.2 °F - 48.2 °F 100% 30.42 in 6.2 mi South 6.9 mph - N/A   Mostly Cloudy
4:00 PM 48.2 °F - 48.2 °F 100% 30.39 in 6.2 mi South 8.1 mph - N/A Rain Light Rain
4:30 PM 48.2 °F - 48.2 °F 100% 30.39 in 6.2 mi South 8.1 mph - N/A Rain Light Rain
5:00 PM 48.2 °F - 48.2 °F 100% 30.39 in 6.2 mi SSW 8.1 mph - N/A Rain Light Rain
5:30 PM 48.2 °F - 48.2 °F 100% 30.39 in 5.6 mi SSW 9.2 mph - N/A Rain Light Rain
6:00 PM 47 °F - 47 °F 100% 30.42 in 4 mi SSW 11.2 mph - - Rain Light Rain
6:00 PM 48.2 °F - 46.4 °F 93% 30.39 in 4.3 mi SSW 10.4 mph - N/A Rain Light Rain
6:30 PM 46.4 °F 41.5 °F 46.4 °F 100% 30.39 in 4.3 mi SSW 10.4 mph - N/A Rain Light Rain
7:00 PM 46.4 °F 41.9 °F 46.4 °F 100% 30.39 in 5.6 mi SSW 9.2 mph - N/A Rain Light Rain
7:30 PM 46.4 °F 41.1 °F 46.4 °F 100% 30.39 in 2.5 mi SSW 11.5 mph - N/A Rain Light Rain
8:00 PM 46.4 °F 41.5 °F 46.4 °F 100% 30.39 in 5.0 mi SSW 10.4 mph - N/A Rain Light Rain
8:30 PM 46.4 °F 41.1 °F 46.4 °F 100% 30.39 in 6.2 mi SSW 11.5 mph - N/A   Mostly Cloudy
9:00 PM 46.4 °F 41.1 °F 46.4 °F 100% 30.39 in 3.7 mi SSW 11.5 mph - N/A   Mostly Cloudy
9:30 PM 46.4 °F 41.9 °F 46.4 °F 100% 30.39 in 0.2 mi SSW 9.2 mph - N/A Fog Fog
10:00 PM 46.4 °F 41.5 °F 46.4 °F 100% 30.39 in 0.4 mi SSW 10.4 mph - N/A Fog Light Drizzle
10:30 PM 46.4 °F 42.4 °F 46.4 °F 100% 30.39 in 0.2 mi SW 8.1 mph - N/A Fog Light Drizzle